Fernwood, MS

8:32 AM CST on February 19, 2017 (GMT -0600)
McComb-Pike County-Lewis

Weather History for KMCB - September, 2014

Change the Weather History Date:

Tuesday, September 2, 2014

  Actual Average Record
Temperature  
Mean Temperature 82 °F -  
Max Temperature 91 °F 90 °F 104 °F (2000)
Min Temperature 73 °F 68 °F 56 °F (1967)
Cooling Degree Days 17    
Growing Degree Days 32 (Base 50)    
Moisture  
Dew Point 73 °F    
Average Humidity 83    
Maximum Humidity 96    
Minimum Humidity 50    
Precipitation  
Precipitation 0.23 in - - ()
Sea Level Pressure  
Sea Level Pressure 30.04 in    
Wind  
Wind Speed 5 mph (South)    
Max Wind Speed 12 mph    
Max Gust Speed 23 mph    
Visibility 8 miles    
Events Fog , Rain , Thunderstorm    
Averages and records for this station are not official NWS values.
T = Trace of Precipitation, MM = Missing Value Source: NWS Daily Summary

Daily Weather History Graph

Daily Weather History Graph

Search for Another Location

Airport or City:

Trip Planner

Search our weather history database for the weather conditions in past years. The results will help you decide how hot, cold, wet, or windy it might be!

Date:

Astronomy

Sep. 02, 2014 Rise Set
Actual Time 6:38 AM CDT 7:24 PM CDT
Civil Twilight 6:13 AM CDT 7:48 PM CDT
Nautical Twilight 5:44 AM CDT 8:17 PM CDT
Astronomical Twilight 5:15 AM CDT 8:47 PM CDT
Moon 1:55 PM CDT (9/2) No Moon Set
Length of Visible Light 13h 34m
Length of Day
12h 45m
First Quarter, 53% of the Moon is Illuminated
Sep 2
First Quarter
Sep 8
Full
Sep 15
Last Quarter
Sep 24
New
Oct 1
First Quarter

Hourly Weather History & Observations

Time (CDT) Temp. Heat Index Dew Point Humidity Pressure Visibility Wind Dir Wind Speed Gust Speed Precip Events Conditions
12:53 AM 75.9 °F - 73.9 °F 94% 30.01 in 10.0 mi South 4.6 mph - N/A   Clear
1:53 AM 75.0 °F - 73.9 °F 96% 30.01 in 8.0 mi SSE 4.6 mph - N/A   Clear
2:18 AM 75.0 °F - 73.9 °F 96% 30.03 in 7.0 mi SE 3.5 mph - N/A   Scattered Clouds
2:53 AM 75.0 °F - 73.9 °F 96% 30.01 in 7.0 mi SSE 3.5 mph - N/A   Partly Cloudy
3:53 AM 75.0 °F - 73.9 °F 96% 30.01 in 7.0 mi Calm Calm - N/A   Clear
4:31 AM 75.0 °F - 73.9 °F 96% 30.03 in 4.0 mi SE 3.5 mph - N/A   Scattered Clouds
4:53 AM 75.0 °F - 73.9 °F 96% 30.02 in 4.0 mi SE 3.5 mph - N/A   Scattered Clouds
5:53 AM 75.0 °F - 73.0 °F 94% 30.04 in 7.0 mi Calm Calm - N/A   Scattered Clouds
6:13 AM 75.0 °F - 73.0 °F 94% 30.05 in 5.0 mi Calm Calm - N/A   Mostly Cloudy
6:53 AM 75.0 °F - 73.0 °F 94% 30.05 in 2.0 mi Calm Calm - N/A   Overcast
7:00 AM 75.0 °F - 73.9 °F 96% 30.06 in 0.8 mi Calm Calm - N/A   Overcast
7:16 AM 75.0 °F - 73.9 °F 96% 30.06 in 0.2 mi Calm Calm - N/A Fog Fog
7:27 AM 75.0 °F - 73.9 °F 96% 30.06 in 0.8 mi SSE 4.6 mph - N/A   Mist
7:32 AM 75.0 °F - 73.9 °F 96% 30.06 in 2.0 mi SSE 5.8 mph - N/A   Overcast
7:43 AM 75.9 °F - 73.9 °F 94% 30.06 in 3.0 mi SSE 5.8 mph - N/A   Overcast
7:53 AM 77.0 °F - 75.0 °F 94% 30.05 in 4.0 mi SSE 6.9 mph - N/A   Overcast
8:22 AM 79.0 °F - 75.9 °F 90% 30.07 in 10.0 mi SSE 5.8 mph - N/A   Scattered Clouds
8:53 AM 81.0 °F 87.3 °F 75.9 °F 85% 30.06 in 10.0 mi South 8.1 mph - N/A   Partly Cloudy
9:53 AM 82.9 °F 90.2 °F 75.0 °F 77% 30.07 in 10.0 mi Variable 5.8 mph - N/A   Scattered Clouds
10:07 AM 84.0 °F 91.9 °F 75.0 °F 74% 30.09 in 10.0 mi SW 8.1 mph - N/A   Mostly Cloudy
10:18 AM 82.9 °F 89.4 °F 73.9 °F 74% 30.09 in 10.0 mi SSW 8.1 mph - N/A   Partly Cloudy
10:53 AM 84.9 °F 91.4 °F 73.0 °F 67% 30.07 in 10.0 mi South 6.9 mph - N/A   Clear
11:53 AM 88.0 °F 95.6 °F 73.0 °F 61% 30.07 in 10.0 mi SW 8.1 mph - N/A   Mostly Cloudy
12:53 PM 88.0 °F 94.7 °F 72.0 °F 59% 30.05 in 10.0 mi Variable 6.9 mph - N/A   Clear
1:53 PM 87.1 °F 92.8 °F 71.1 °F 59% 30.02 in 10.0 mi South 8.1 mph - N/A   Scattered Clouds
2:25 PM 90.0 °F 95.4 °F 70.0 °F 52% 30.02 in 10.0 mi West 4.6 mph - N/A Thunderstorm Mostly Cloudy
2:40 PM 90.0 °F 94.5 °F 69.1 °F 50% 30.02 in 10.0 mi Variable 3.5 mph - N/A   Scattered Clouds
2:53 PM 91.0 °F 96.6 °F 70.0 °F 50% 29.99 in 10.0 mi SSW 5.8 mph - N/A   Partly Cloudy
3:53 PM 91.9 °F 99.5 °F 72.0 °F 52% 29.97 in 10.0 mi WSW 5.8 mph - N/A   Clear
4:08 PM 86.0 °F 93.0 °F 73.0 °F 65% 29.99 in 10.0 mi South 10.4 mph - N/A Thunderstorm Thunderstorm
4:23 PM 84.0 °F 90.2 °F 73.0 °F 69% 30.00 in 8.0 mi SSE 10.4 mph - N/A Thunderstorm Overcast
4:34 PM 80.1 °F 83.8 °F 72.0 °F 76% 30.01 in 8.0 mi WSW 3.5 mph - 0.01 in Rain , Thunderstorm Light Thunderstorms and Rain
4:53 PM 82.0 °F 87.4 °F 73.0 °F 74% 30.00 in 10.0 mi North 8.1 mph - 0.01 in Rain , Thunderstorm Light Thunderstorms and Rain
5:24 PM 79.0 °F - 72.0 °F 79% 30.01 in 10.0 mi NNE 6.9 mph - 0.01 in Thunderstorm Overcast
5:53 PM 77.0 °F - 70.0 °F 79% 30.01 in 10.0 mi NW 11.5 mph 23.0 mph 0.01 in Thunderstorm Overcast
6:18 PM 75.0 °F - 71.1 °F 87% 30.02 in 10.0 mi NNW 9.2 mph - N/A Thunderstorm Overcast
6:53 PM 75.0 °F - 71.1 °F 87% 30.03 in 9.0 mi West 5.8 mph - 0.00 in Rain , Thunderstorm Light Rain
7:13 PM 73.9 °F - 72.0 °F 93% 30.06 in 9.0 mi Calm Calm - 0.02 in Rain , Thunderstorm Light Rain
7:30 PM 75.9 °F - 71.1 °F 85% 30.07 in 10.0 mi Calm Calm - 0.03 in Rain , Thunderstorm Light Thunderstorms and Rain
7:41 PM 75.0 °F - 71.1 °F 87% 30.08 in 8.0 mi North 6.9 mph - 0.04 in Rain , Thunderstorm Light Rain
7:53 PM 75.0 °F - 72.0 °F 90% 30.07 in 5.0 mi North 4.6 mph - 0.08 in Rain , Thunderstorm Thunderstorms and Rain
8:09 PM 73.9 °F - 70.0 °F 87% 30.09 in 7.0 mi Variable 3.5 mph - 0.04 in Rain , Thunderstorm Thunderstorms and Rain
8:42 PM 73.9 °F - 71.1 °F 91% 30.12 in 10.0 mi Calm Calm - 0.06 in Rain , Thunderstorm Light Rain
8:53 PM 73.0 °F - 71.1 °F 93% 30.09 in 9.0 mi SSE 3.5 mph - 0.07 in Rain Light Rain
9:12 PM 73.9 °F - 72.0 °F 93% 30.10 in 8.0 mi SE 5.8 mph - 0.02 in Rain Light Rain
9:53 PM 73.0 °F - 71.1 °F 93% 30.03 in 8.0 mi SE 9.2 mph - 0.05 in Rain Light Rain
10:08 PM 73.0 °F - 71.1 °F 93% 30.03 in 10.0 mi SSE 11.5 mph - 0.00 in Rain Light Rain
10:53 PM 73.0 °F - 71.1 °F 93% 29.97 in 10.0 mi SSE 3.5 mph - 0.00 in   Partly Cloudy
11:53 PM 73.0 °F - 71.1 °F 93% 29.99 in 10.0 mi NW 5.8 mph - 0.01 in   Partly Cloudy